Previsão horária em Almamellék

Hoje, 25 Junho, Sexta-feira

Tempo Temperatura Precipitação Vento Pressão Humidade
00:00 +25°C° 0 mm 2 m/s 745 mmHg 63%
01:00 +25°C° 0 mm 2 m/s 745 mmHg 62%
02:00 +24°C° 0 mm 2 m/s 745 mmHg 66%
03:00 +23°C° 0 mm 2 m/s 745 mmHg 71%
04:00 +21°C° 0 mm 3 m/s 745 mmHg 76%
05:00 +22°C° 0 mm 3 m/s 746 mmHg 72%
06:00 +24°C° 0 mm 3 m/s 746 mmHg 68%
07:00 +25°C° 0 mm 2 m/s 747 mmHg 64%
08:00 +27°C° 0 mm 2 m/s 747 mmHg 58%
09:00 +29°C° 0 mm 2 m/s 747 mmHg 51%
10:00 +31°C° 0 mm 2 m/s 747 mmHg 44%
11:00 +33°C° 0 mm 3 m/s 746 mmHg 41%
12:00 +34°C° 0 mm 3 m/s 746 mmHg 37%
13:00 +35°C° 0 mm 3 m/s 746 mmHg 33%
14:00 +35°C° 0 mm 3 m/s 745 mmHg 32%
15:00 +35°C° 0 mm 3 m/s 744 mmHg 31%
16:00 +36°C° 0 mm 3 m/s 743 mmHg 29%
17:00 +30°C° 0.8 mm 3 m/s 744 mmHg 48%
18:00 +26°C° 0.8 mm 3 m/s 745 mmHg 67%
19:00 +21°C° 0.8 mm 3 m/s 746 mmHg 86%
20:00 +20°C° 0.1 mm 2 m/s 746 mmHg 88%
21:00 +19°C° 0.1 mm 2 m/s 746 mmHg 90%
22:00 +19°C° 0.1 mm 1 m/s 747 mmHg 92%
23:00 +18°C° 0.1 mm 2 m/s 747 mmHg 92%

Amanhã, 26 Junho, Sábado

Tempo Temperatura Precipitação Vento Pressão Humidade
00:00 +18°C° 0.1 mm 2 m/s 747 mmHg 92%
01:00 +17°C° 0.1 mm 2 m/s 747 mmHg 92%
02:00 +17°C° 0.1 mm 2 m/s 747 mmHg 93%
03:00 +17°C° 0.1 mm 2 m/s 747 mmHg 93%
04:00 +16°C° 0.1 mm 2 m/s 747 mmHg 94%
05:00 +18°C° 0 mm 2 m/s 748 mmHg 88%
06:00 +19°C° 0 mm 3 m/s 748 mmHg 83%
07:00 +21°C° 0 mm 3 m/s 748 mmHg 77%
08:00 +24°C° 0 mm 3 m/s 748 mmHg 67%
09:00 +26°C° 0 mm 3 m/s 748 mmHg 57%
10:00 +28°C° 0 mm 3 m/s 748 mmHg 47%
11:00 +29°C° 0 mm 3 m/s 748 mmHg 43%
12:00 +30°C° 0 mm 3 m/s 748 mmHg 39%
13:00 +31°C° 0 mm 3 m/s 747 mmHg 34%
14:00 +31°C° 0 mm 3 m/s 747 mmHg 33%
15:00 +31°C° 0 mm 3 m/s 747 mmHg 31%
16:00 +32°C° 0 mm 2 m/s 746 mmHg 30%
17:00 +30°C° 0 mm 2 m/s 746 mmHg 35%
18:00 +28°C° 0 mm 2 m/s 746 mmHg 41%
19:00 +26°C° 0 mm 2 m/s 746 mmHg 47%
20:00 +25°C° 0 mm 2 m/s 746 mmHg 51%
21:00 +24°C° 0 mm 2 m/s 747 mmHg 54%
22:00 +21°C° 0 mm 2 m/s 747 mmHg 58%
23:00 +20°C° 0 mm 2 m/s 747 mmHg 61%

Depois de amanhã, 27 Junho, Domingo

Tempo Temperatura Precipitação Vento Pressão Humidade
00:00 +21°C° 0 mm 1 m/s 747 mmHg 65%
01:00 +20°C° 0 mm 1 m/s 747 mmHg 68%
02:00 +20°C° 0 mm 1 m/s 747 mmHg 71%
03:00 +19°C° 0 mm 1 m/s 747 mmHg 73%
04:00 +19°C° 0 mm 1 m/s 747 mmHg 75%
05:00 +21°C° 0 mm 1 m/s 747 mmHg 69%
06:00 +23°C° 0 mm 1 m/s 748 mmHg 63%
07:00 +25°C° 0 mm 2 m/s 748 mmHg 57%
08:00 +27°C° 0 mm 2 m/s 748 mmHg 51%
09:00 +28°C° 0 mm 1 m/s 748 mmHg 45%
10:00 +30°C° 0 mm 1 m/s 748 mmHg 39%
11:00 +31°C° 0 mm 1 m/s 747 mmHg 36%
12:00 +32°C° 0 mm 1 m/s 747 mmHg 33%
13:00 +33°C° 0 mm 1 m/s 747 mmHg 30%
14:00 +34°C° 0 mm 2 m/s 747 mmHg 30%
15:00 +34°C° 0 mm 2 m/s 746 mmHg 29%
16:00 +34°C° 0 mm 2 m/s 746 mmHg 28%
17:00 +32°C° 0 mm 2 m/s 746 mmHg 34%
18:00 +30°C° 0 mm 2 m/s 746 mmHg 41%
19:00 +28°C° 0 mm 1 m/s 746 mmHg 47%
20:00 +26°C° 0 mm 1 m/s 747 mmHg 51%
21:00 +25°C° 0 mm 1 m/s 747 mmHg 54%
22:00 +24°C° 0 mm 1 m/s 747 mmHg 58%
23:00 +23°C° 0 mm 1 m/s 747 mmHg 60%

28 Junho, Segunda-feira

Tempo Temperatura Precipitação Vento Pressão Humidade
00:00 +23°C° 0 mm 1 m/s 747 mmHg 61%
01:00 +22°C° 0 mm 1 m/s 747 mmHg 63%
02:00 +22°C° 0 mm 1 m/s 747 mmHg 63%
03:00 +21°C° 0 mm 1 m/s 747 mmHg 64%
04:00 +21°C° 0 mm 1 m/s 747 mmHg 64%
05:00 +23°C° 0 mm 1 m/s 747 mmHg 59%
06:00 +25°C° 0 mm 1 m/s 747 mmHg 54%
07:00 +27°C° 0 mm 1 m/s 747 mmHg 49%
08:00 +29°C° 0 mm 2 m/s 747 mmHg 44%
09:00 +31°C° 0 mm 2 m/s 747 mmHg 38%
10:00 +34°C° 0 mm 3 m/s 747 mmHg 33%
11:00 +35°C° 0 mm 3 m/s 747 mmHg 30%
12:00 +36°C° 0 mm 3 m/s 747 mmHg 28%
13:00 +36°C° 0 mm 3 m/s 746 mmHg 25%
14:00 +37°C° 0 mm 3 m/s 746 mmHg 25%
15:00 +37°C° 0 mm 3 m/s 746 mmHg 25%
16:00 +37°C° 0 mm 3 m/s 746 mmHg 25%
17:00 +35°C° 0 mm 3 m/s 745 mmHg 31%
18:00 +33°C° 0 mm 3 m/s 745 mmHg 37%
19:00 +30°C° 0 mm 3 m/s 745 mmHg 43%
20:00 +28°C° 0 mm 3 m/s 745 mmHg 45%
21:00 +27°C° 0 mm 3 m/s 745 mmHg 48%
22:00 +25°C° 0 mm 3 m/s 745 mmHg 50%
23:00 +25°C° 0 mm 3 m/s 745 mmHg 52%

29 Junho, Terça-feira

Tempo Temperatura Precipitação Vento Pressão Humidade
00:00 +24°C° 0 mm 2 m/s 745 mmHg 53%
01:00 +23°C° 0 mm 2 m/s 744 mmHg 55%
02:00 +23°C° 0 mm 2 m/s 744 mmHg 57%
03:00 +21°C° 0 mm 2 m/s 744 mmHg 60%
04:00 +21°C° 0 mm 2 m/s 744 mmHg 62%
05:00 +24°C° 0 mm 2 m/s 744 mmHg 58%
06:00 +26°C° 0 mm 2 m/s 744 mmHg 53%
07:00 +28°C° 0 mm 2 m/s 744 mmHg 48%
08:00 +30°C° 0 mm 2 m/s 744 mmHg 42%
09:00 +34°C° 0 mm 2 m/s 744 mmHg 35%
10:00 +36°C° 0 mm 2 m/s 744 mmHg 29%
11:00 +37°C° 0 mm 3 m/s 743 mmHg 25%
12:00 +38°C° 0 mm 3 m/s 743 mmHg 22%
13:00 +41°C° 0 mm 4 m/s 742 mmHg 18%
14:00 +41°C° 0 mm 4 m/s 742 mmHg 17%
15:00 +41°C° 0 mm 4 m/s 742 mmHg 16%
16:00 +41°C° 0 mm 4 m/s 741 mmHg 15%
17:00 +38°C° 0 mm 4 m/s 741 mmHg 19%
18:00 +36°C° 0 mm 4 m/s 741 mmHg 22%
19:00 +34°C° 0 mm 4 m/s 741 mmHg 26%
20:00 +30°C° 0 mm 3 m/s 741 mmHg 30%
21:00 +28°C° 0 mm 3 m/s 741 mmHg 34%
22:00 +25°C° 0 mm 2 m/s 741 mmHg 38%
23:00 +24°C° 0 mm 2 m/s 741 mmHg 41%

30 Junho, Quarta-feira

Tempo Temperatura Precipitação Vento Pressão Humidade
00:00 +24°C° 0 mm 2 m/s 741 mmHg 44%
01:00 +23°C° 0 mm 2 m/s 741 mmHg 46%
02:00 +23°C° 0 mm 2 m/s 741 mmHg 47%
03:00 +21°C° 0 mm 2 m/s 741 mmHg 49%
04:00 +21°C° 0 mm 2 m/s 741 mmHg 50%
05:00 +24°C° 0 mm 2 m/s 741 mmHg 48%
06:00 +25°C° 0 mm 3 m/s 742 mmHg 46%
07:00 +27°C° 0 mm 3 m/s 742 mmHg 43%
08:00 +29°C° 0 mm 3 m/s 742 mmHg 40%
09:00 +30°C° 0 mm 3 m/s 742 mmHg 37%
10:00 +33°C° 0 mm 3 m/s 742 mmHg 33%
11:00 +34°C° 0 mm 3 m/s 742 mmHg 31%
12:00 +35°C° 0 mm 3 m/s 742 mmHg 28%
13:00 +36°C° 0 mm 3 m/s 742 mmHg 26%
14:00 +36°C° 0 mm 3 m/s 742 mmHg 24%
15:00 +37°C° 0 mm 3 m/s 741 mmHg 23%
16:00 +37°C° 0 mm 3 m/s 741 mmHg 21%
17:00 +35°C° 0 mm 3 m/s 741 mmHg 27%
18:00 +33°C° 0 mm 4 m/s 741 mmHg 33%
19:00 +30°C° 0 mm 4 m/s 741 mmHg 39%
20:00 +28°C° 0 mm 4 m/s 742 mmHg 47%
21:00 +25°C° 0 mm 3 m/s 742 mmHg 54%
22:00 +22°C° 0 mm 3 m/s 743 mmHg 62%
23:00 +21°C° 0 mm 3 m/s 743 mmHg 69%
Mostrar mais